Weather History for Sault Ste Marie, MI

Change the Weather History Date:

Tuesday, October 16, 2012

  Actual Average Record
Temperature  
Mean Temperature 40 °F 46 °F  
Max Temperature 48 °F 53 °F 80 °F (1968)
Min Temperature 31 °F 38 °F 23 °F (1980)
Degree Days  
Heating Degree Days 25 20  
Month to date heating degree days 314 268  
Since 1 July heating degree days 642 669  
Cooling Degree Days 0 0  
Month to date cooling degree days 0 0  
Year to date cooling degree days 402 195  
Moisture  
Dew Point 36 °F    
Average Humidity 77    
Maximum Humidity 89    
Minimum Humidity 64    
Precipitation  
Precipitation 0.16 in 0.12 in 1.34 in (1897)
Month to date precipitation 3.69 2.03  
Year to date precipitation 22.67 25.02  
Snow  
Snow 0.00 in 0.00 in 4.50 in (1916)
Month to date snowfall 5.0 0.3  
Since 1 July snowfall 5.0 0.3  
Snow Depth 0.00 in    
Sea Level Pressure  
Sea Level Pressure 29.80 in    
Wind  
Wind Speed 6 mph (ESE)    
Max Wind Speed 14 mph    
Max Gust Speed 21 mph    
Visibility 9 miles    
Events Rain    
T = Trace of Precipitation, MM = Missing Value Source: NWS Daily Summary

Daily Weather History Graph

Daily Weather History Graph

Search for Another Location

Airport:

Trip Planner

Search our weather history database for the weather conditions in past years. The results will help you decide how hot, cold, wet, or windy it might be!

Date:

Astronomy

Oct. 16, 2012 Rise Set
Actual Time 7:56 AM EDT 6:48 PM EDT
Civil Twilight 7:26 AM EDT 7:18 PM EDT
Nautical Twilight 6:51 AM EDT 7:53 PM EDT
Astronomical Twilight 6:16 AM EDT 8:28 PM EDT
Moon 9:26 AM EDT (10/16) 7:23 PM EDT (10/16)
Length of Visible Light 11h 52m
Length of Day
10h 51m
New Moon, 2% of the Moon is Illuminated
Oct 16
New Moon
Oct 21
First Quarter
Oct 29
Full
Nov 6
Last Quarter
Nov 13
New

Hourly Weather History & Observations

Time (EDT) Temp. Windchill Dew Point Humidity Pressure Visibility Wind Dir Wind Speed Gust Speed Precip Events Conditions
12:55 AM 39.9 °F 37.8 °F 28.0 °F 63% 29.91 in 10.0 mi East 3.5 mph - N/A   Overcast
1:55 AM 37.0 °F - 28.0 °F 70% 29.91 in 10.0 mi Calm Calm - N/A   Partly Cloudy
2:55 AM 36.0 °F - 27.0 °F 70% 29.92 in 10.0 mi Calm Calm - N/A   Clear
3:55 AM 35.1 °F - 30.0 °F 82% 29.91 in 10.0 mi Calm Calm - N/A   Clear
4:55 AM 32.0 °F - 28.0 °F 85% 29.91 in 10.0 mi Calm Calm - N/A   Clear
5:55 AM 33.1 °F 30.0 °F 28.9 °F 85% 29.91 in 10.0 mi East 3.5 mph - N/A   Clear
6:55 AM 32.0 °F 27.5 °F 28.9 °F 88% 29.91 in 10.0 mi East 4.6 mph - N/A   Clear
7:55 AM 32.0 °F 26.4 °F 28.9 °F 88% 29.91 in 8.0 mi ENE 5.8 mph - N/A   Clear
8:55 AM 33.1 °F 28.7 °F 30.9 °F 92% 29.90 in 10.0 mi East 4.6 mph - N/A   Clear
9:55 AM 37.0 °F 34.5 °F 33.1 °F 86% 29.89 in 6.0 mi East 3.5 mph - N/A   Clear
10:45 AM 39.9 °F 37.8 °F 33.1 °F 77% 29.87 in 10.0 mi ESE 3.5 mph - N/A   Mostly Cloudy
10:55 AM 39.9 °F 35.1 °F 34.0 °F 79% 29.88 in 10.0 mi SSE 6.9 mph - N/A   Overcast
11:55 AM 44.1 °F 39.0 °F 35.1 °F 71% 29.85 in 10.0 mi SE 9.2 mph - N/A   Overcast
12:55 PM 46.0 °F 40.6 °F 36.0 °F 68% 29.83 in 10.0 mi SSE 11.5 mph - N/A   Overcast
1:55 PM 46.9 °F - 37.9 °F 71% 29.81 in 10.0 mi SSE 9.2 mph - N/A   Overcast
2:55 PM 46.9 °F - 39.0 °F 74% 29.79 in 10.0 mi SE 8.1 mph - 0.00 in Rain Light Rain
3:55 PM 45.0 °F 40.6 °F 39.9 °F 82% 29.78 in 9.0 mi ESE 8.1 mph - 0.02 in Rain Light Rain
4:52 PM 44.6 °F 39.7 °F 39.2 °F 81% 29.75 in 5.0 mi SE 9.2 mph - 0.03 in Rain Light Rain
4:55 PM 44.1 °F 39.0 °F 39.9 °F 85% 29.76 in 5.0 mi SE 9.2 mph - 0.03 in Rain Light Rain
5:52 PM 44.6 °F 40.7 °F 41.0 °F 87% 29.71 in 5.0 mi ESE 6.9 mph - 0.06 in Rain Light Rain
5:55 PM 44.1 °F 40.1 °F 41.0 °F 89% 29.72 in 5.0 mi ESE 6.9 mph - 0.06 in Rain Light Rain
6:55 PM 44.1 °F 41.5 °F 41.0 °F 89% 29.72 in 9.0 mi East 4.6 mph - 0.03 in Rain Light Rain
7:02 PM 44.1 °F 40.8 °F 41.0 °F 89% 29.71 in 10.0 mi ESE 5.8 mph - 0.00 in Rain Light Rain
7:18 PM 43.0 °F 38.2 °F 39.9 °F 89% 29.70 in 10.0 mi ESE 8.1 mph - 0.01 in Rain Light Rain
7:55 PM 44.1 °F 38.6 °F 41.0 °F 89% 29.71 in 10.0 mi ESE 10.4 mph - 0.01 in   Overcast
8:04 PM 44.1 °F 38.6 °F 41.0 °F 89% 29.69 in 10.0 mi ESE 10.4 mph - N/A   Overcast
8:55 PM 45.0 °F 39.3 °F 42.1 °F 90% 29.70 in 10.0 mi ESE 11.5 mph - 0.01 in Rain Light Rain
9:46 PM 45.0 °F 39.7 °F 42.1 °F 90% 29.67 in 10.0 mi ESE 10.4 mph - 0.00 in Rain Light Rain
9:55 PM 45.0 °F 40.1 °F 43.0 °F 93% 29.69 in 10.0 mi ESE 9.2 mph 18.4 mph 0.00 in   Overcast
10:55 PM 46.9 °F - 43.0 °F 86% 29.68 in 10.0 mi ESE 9.2 mph - N/A   Overcast
11:55 PM 46.9 °F - 43.0 °F 86% 29.67 in 10.0 mi East 6.9 mph - 0.00 in Rain Light Rain